Flag for United Arab Emirates Weather past 2 weeks in Ajmān, Ajmān, United Arab Emirates

Now
54 °F

Clear.


Feels Like: 53 °F
Forecast: 65 / 75 °F
Wind: 5 mph from Southeast

Location: Sharjah International Airport

Current Time: Feb 28, 2015 at 6:18:29 AM

Latest Report: Feb 28, 2015 at 6:00 AM


Visibility: 10 mi

Pressure: 29.98 "Hg

Humidity: 67%

Dew point: 43 °F

Location of AjmānLocation

Historic Weather in Ajmān — Graph

°F

Ajmān temperature yesterday

Maximum temperature yesterday: 73 °F (at 12:00 PM)
Minimum temperature yesterday: 63 °F (at 5:00 AM)
Average temperature yesterday: 69 °F

Past Weeks' High & Low Weather Summary

 TemperatureHumidityPressure
High95 °F (Feb 19, 2:00 PM)88% (Feb 16, 2:00 AM)30.09 "Hg (Feb 16, 2:00 AM)
Low54 °F (Feb 28, 4:00 AM)8% (Feb 19, 2:00 PM)29.56 "Hg (Feb 21, 7:00 AM)
Average73 °F44%29.92 "Hg
* Reported Feb 13 5:00 AM — Feb 28 5:00 AM, Ajmān, Weather by CustomWeather, © 2015

Note: Actual official high and low records may vary slightly from our data, if they occured in-between our weather recording intervals... More about our weather records

Advertising

Ajmān weather history for previous 24 hours

 ConditionsComfort  
Time TempWeatherWind HumidityBarometerVisibility
5:00 AM
Sat, Feb 28
54 °FClear.6 mph72%29.98 "Hg10 mi
4:00 AM54 °FClear.5 mph72%29.95 "Hg10 mi
3:00 AM57 °FClear.2 mph63%29.95 "Hg10 mi
2:00 AM57 °FClear.6 mph63%29.98 "Hg10 mi
1:00 AM59 °FClear.6 mph63%29.98 "Hg10 mi
12:00 AM63 °FClear.2 mph59%29.98 "Hg10 mi
11:00 PM
Fri, Feb 27
63 °FClear.2 mph56%29.98 "Hg10 mi
10:00 PM64 °FClear.6 mph56%29.98 "Hg10 mi
9:00 PM66 °FClear.13 mph52%29.98 "Hg10 mi
8:00 PM68 °FClear.12 mph43%29.95 "Hg10 mi
7:00 PM68 °FPassing clouds.14 mph46%29.92 "HgN/A
6:00 PM70 °FScattered clouds.20 mph35%29.89 "Hg5 mi
5:00 PM72 °FPartly sunny.23 mph33%29.89 "Hg5 mi
4:00 PM70 °FPartly sunny.21 mph40%29.86 "Hg4 mi
3:00 PM72 °FPartly sunny.23 mph44%29.86 "Hg4 mi
2:00 PM73 °FPartly sunny.20 mph47%29.86 "Hg3 mi
1:00 PM72 °FPartly sunny.18 mph47%29.86 "HgN/A
12:00 PM73 °FPartly sunny.22 mph47%29.89 "HgN/A
11:00 AM72 °FPartly sunny.23 mph50%29.92 "HgN/A
10:00 AM72 °FScattered clouds.22 mph50%29.92 "HgN/A
9:00 AM72 °FScattered clouds.22 mph50%29.92 "HgN/A
8:00 AM70 °FScattered clouds.17 mph53%29.89 "HgN/A
7:00 AM64 °FPassing clouds.8 mph64%29.89 "HgN/A
6:00 AM63 °FPassing clouds.8 mph73%29.86 "HgN/A
Weather by CustomWeather, © 2015

See weather overviewHow to use our weather pages